FW9017 Weather Reports


time (UTC)temp
F
wind
direction
speed
knots
gust
knots
rain 1hr
in
rain 24hr
in
rain mn
in
humidity
%
barometer
mb
20260504174559 71 177 1.7 7.8 0.00 0.00 0.00 36 1009.7
20260504173056 70 302 3.5 9.6 0.00 0.00 0.00 34 1009.7
20260504171556 70 188 1.7 6.1 0.00 0.00 0.00 36 1009.9
20260504120130 53 0 0.0 1.7 0.00 0.00 0.00 60 1013.0
20260504081602 38 0 0.0 0.9 0.00 0.00 0.00 86 1012.1
20260504044557 38 0 0.0 0.9 0.00 0.00 0.00 83 1012.3
20260504043113 39 0 0.0 0.0 0.00 0.00 0.00 81 1012.4
20260504041557 39 0 0.0 0.0 0.00 0.00 0.00 80 1012.2
20260504040059 39 0 0.0 0.0 0.00 0.00 0.00 79 1012.1
20260504034555 40 0 0.0 0.0 0.00 0.00 0.00 81 1012.0
20260504033109 40 0 0.0 0.9 0.00 0.00 0.00 80 1011.9
20260504031559 41 0 0.0 0.9 0.00 0.00 0.00 80 1011.9
20260504030114 42 0 0.0 0.9 0.00 0.00 0.00 78 1011.9
20260504024557 42 0 0.0 0.0 0.00 0.00 0.00 74 1011.9
20260504023055 43 0 0.0 0.0 0.00 0.00 0.00 74 1011.9
20260504021556 43 0 0.0 0.9 0.00 0.00 0.00 70 1011.8
20260504020104 44 0 0.0 0.0 0.00 0.00 0.00 67 1011.7
20260504014603 45 290 0.0 0.9 0.00 0.00 0.00 64 1011.4
20260504013057 46 0 0.0 0.0 0.00 0.00 0.00 62 1011.3
20260504011556 47 0 0.0 0.0 0.00 0.00 0.00 57 1011.1
20260504010100 47 0 0.0 0.0 0.00 0.00 0.00 55 1010.9
20260504004555 48 0 0.0 0.0 0.00 0.00 0.00 53 1010.6
20260504003101 49 0 0.0 0.0 0.00 0.00 0.00 54 1010.3
20260504001601 50 0 0.0 0.9 0.00 0.00 0.00 44 1010.0
20260504000100 52 0 0.0 1.7 0.00 0.00 0.00 42 1009.9
20260503234555 53 0 0.0 2.6 0.00 0.00 0.00 38 1009.7
20260503233055 54 0 0.9 2.6 0.00 0.00 0.00 37 1009.7
20260503231553 55 0 0.0 6.1 0.00 0.00 0.00 36 1009.5
20260503230111 55 286 0.9 7.0 0.00 0.00 0.00 36 1009.6
20260503224557 55 341 1.7 7.8 0.00 0.00 0.00 36 1009.5
20260503223112 55 255 3.5 8.7 0.00 0.00 0.00 36 1009.4
20260503221558 56 267 1.7 10.4 0.00 0.00 0.00 36 1009.4
20260503220056 57 351 2.6 11.3 0.00 0.00 0.00 34 1009.4
20260503214600 57 234 2.6 7.8 0.00 0.00 0.00 35 1009.4
20260503213056 56 243 3.5 8.7 0.00 0.00 0.00 35 1009.4
20260503211556 55 344 3.5 11.3 0.00 0.00 0.00 37 1009.4
20260503210057 56 329 3.5 11.3 0.00 0.00 0.00 35 1009.5
20260503204557 55 355 6.1 13.9 0.00 0.00 0.00 36 1009.3
20260503203057 56 291 2.6 10.4 0.00 0.00 0.00 37 1009.3
20260503201557 55 324 5.2 11.3 0.00 0.00 0.00 36 1009.3
20260503200101 55 297 4.3 13.9 0.00 0.00 0.00 38 1009.2
20260503194621 56 350 4.3 13.9 0.00 0.00 0.00 37 1009.3
20260503193058 55 319 3.5 11.3 0.00 0.00 0.00 38 1009.3
20260503191608 54 277 5.2 11.3 0.00 0.00 0.00 40 1009.4
20260503190057 53 340 4.3 15.6 0.00 0.00 0.00 43 1009.1
20260503184553 54 5 7.0 15.6 0.00 0.00 0.00 38 1009.3
20260503183103 55 243 2.6 12.2 0.00 0.00 0.00 36 1009.4
20260503181606 56 307 4.3 15.6 0.00 0.00 0.00 37 1009.2
20260503180058 54 324 5.2 11.3 0.00 0.00 0.00 38 1009.1